Home > Weather > Florø > Past weeks

Flag for Norway Past Weather in Florø, Norway — Yesterday and Last 2 Weeks

Now
59 °F

Light rain. Broken clouds.


Feels Like: 58 °F
Forecast: 57 / 63 °F
Wind: 8 mph from Southeast

Location: Floro

Current Time: Aug 24, 2016 at 4:09:01 PM

Latest Report: Aug 24, 2016 at 3:20 PM


Visibility: 5 mi

Pressure: 30.07 "Hg

Humidity: 100%

Dew Point: 59 °F

Location of FlorøLocation

Past Weather in Florø — Graph

°F

Florø Temperature Yesterday

Maximum temperature yesterday: 63 °F (at 8:20 AM)
Minimum temperature yesterday: 57 °F (at 10:20 PM)
Average temperature yesterday: 61 °F

High & Low Weather Summary for the Past Weeks

 TemperatureHumidityPressure
High68 °F (Aug 20, 3:20 PM)100% (Aug 12, 3:50 PM)30.30 "Hg (Aug 12, 3:50 PM)
Low45 °F (Aug 10, 8:50 PM)56% (Aug 20, 6:50 PM)29.50 "Hg (Aug 12, 5:20 PM)
Average56 °F85%29.97 "Hg
* Reported Aug 9 2:20 PM — Aug 24 2:50 PM, Florø, Weather by CustomWeather, © 2016

Note: Actual official high and low records may vary slightly from our data, if they occured in-between our weather recording intervals... More about our weather records

Advertising

Florø Weather History for the Previous 24 Hours

Scroll right to see more
 ConditionsComfort  
Time TempWeatherWind HumidityBarometerVisibility
2:50 PM
Wed, Aug 24
59 °FRain. Broken clouds.7 mph94%30.07 "Hg5 mi
2:20 PM59 °FScattered showers. Broken clouds.7 mph94%30.07 "Hg6 mi
1:50 PM59 °FDrizzle. Fog.8 mph94%30.07 "Hg2 mi
1:20 PM59 °FDrizzle. Broken clouds.9 mph94%30.07 "HgN/A
12:50 PM59 °FLight rain. Broken clouds.5 mph94%30.07 "Hg5 mi
12:20 PM59 °FDrizzle. Broken clouds.5 mph94%30.09 "Hg6 mi
11:50 AM59 °FDrizzle. Broken clouds.6 mph88%30.09 "HgN/A
11:20 AM59 °FDrizzle. Broken clouds.7 mph88%30.09 "HgN/A
10:50 AM59 °FLight rain. Partly sunny.6 mph88%30.09 "HgN/A
10:20 AM61 °FLight rain. Broken clouds.3 mph88%30.12 "HgN/A
9:50 AM59 °FLight rain. Broken clouds.6 mph94%30.12 "HgN/A
9:20 AM59 °FLight rain. Broken clouds.7 mph88%30.12 "HgN/A
8:50 AM59 °FLight rain. Broken clouds.8 mph88%30.12 "HgN/A
8:20 AM59 °FLight rain. Broken clouds.9 mph88%30.15 "HgN/A
7:50 AM59 °FLight rain. Broken clouds.9 mph88%30.15 "HgN/A
7:20 AM61 °FScattered showers. Broken clouds.9 mph83%30.15 "HgN/A
6:50 AM61 °FPartly cloudy.13 mph83%30.15 "HgN/A
6:20 AM61 °FPartly cloudy.10 mph83%30.15 "HgN/A
5:50 AM61 °FPassing clouds.13 mph83%30.15 "HgN/A
5:20 AM61 °FMostly cloudy.9 mph88%30.15 "HgN/A
4:50 AM59 °FPartly cloudy.7 mph88%30.18 "HgN/A
4:20 AM59 °FSprinkles. Mostly cloudy.8 mph94%30.18 "HgN/A
3:50 AM61 °FLight rain. Overcast.9 mph88%30.18 "HgN/A
3:20 AM59 °FOvercast.3 mph94%30.18 "HgN/A
2:50 AM59 °FMostly cloudy.3 mph88%30.21 "HgN/A
2:20 AM59 °FMostly cloudy.3 mph88%30.18 "HgN/A
1:50 AM59 °FMostly cloudy.3 mph88%30.21 "HgN/A
1:20 AM59 °FMostly cloudy.5 mph88%30.18 "HgN/A
12:50 AM59 °FPartly cloudy.3 mph88%30.18 "HgN/A
12:20 AM59 °FMostly cloudy.2 mph88%30.21 "HgN/A
11:50 PM
Tue, Aug 23
59 °FMostly cloudy.2 mph88%30.21 "HgN/A
11:20 PM59 °FMostly cloudy.5 mph88%30.21 "HgN/A
10:50 PM59 °FOvercast.3 mph88%30.21 "HgN/A
10:20 PM57 °FSprinkles. Mostly cloudy.5 mph88%30.21 "HgN/A
9:50 PM59 °FBroken clouds.3 mph82%30.21 "HgN/A
9:20 PM59 °FScattered clouds.2 mph82%30.21 "HgN/A
8:50 PM61 °FPassing clouds.3 mph83%30.18 "HgN/A
8:20 PM61 °FScattered clouds.6 mph83%30.21 "HgN/A
7:50 PM61 °FSunny.6 mph77%30.18 "Hg10 mi
7:20 PM61 °FSunny.7 mph77%30.18 "Hg10 mi
6:50 PM63 °FScattered clouds.8 mph73%30.18 "HgN/A
6:20 PM61 °FScattered clouds.9 mph77%30.21 "HgN/A
5:50 PM63 °FScattered clouds.13 mph77%30.21 "HgN/A
5:20 PM63 °FScattered clouds.13 mph73%30.21 "HgN/A
4:50 PM63 °FPartly sunny.12 mph77%30.21 "HgN/A
4:20 PM63 °FPartly sunny.10 mph77%30.21 "HgN/A
Weather by CustomWeather, © 2016

See weather overviewHow to use our weather pages